Location: Noordwijk
(52.2400°N, 4.4500°E)
Time: 21:36:35
(UTC+00:00)

CAS-4B - Pass Details

Date: 12 December 2022
Orbit: 515 x 531 km, 43.0° (Epoch: 04 February)

Event Time Altitude Azimuth Distance (km) Brightness Sun altitude
Exits shadow 05:09:42 21° 195° (SSW) 1,206 ? -22.0°
Maximum altitude 05:10:20 22° 181° (S) 1,176 ? -21.9°
Drops below altitude 10° 05:13:32 10° 129° (SE) 1,777 ? -21.4°
Sets 05:16:06 0° 114° (ESE) 2,670 ? -21.0°
